GFSCGP_925_spd_000.txt.gz
Wind_Speed
14 11 16 26 23 14 8 6 9 20 24 5 12 15 23 13 10 13 10 10 10 9 6 18 28 33 27 23 21 18 14 11 7 4 7 7 8 9 9 8 8 8 9 8
8 24 23 16 15 12 12 14 18 21 23 7 17 18 21 9 7 10 12 11 7 7 10 11 23 28 27 24 20 16 13 11 8 4 5 7 7 7 8 8 8 8 7 8
22 8 18 16 14 13 16 17 17 18 20 16 10 15 9 5 3 3 7 4 7 16 15 13 14 22 26 24 21 17 14 9 7 3 2 2 4 4 3 5 5 5 3 4
18 22 16 22 18 17 19 16 19 15 12 8 6 7 5 6 6 5 8 7 10 14 12 15 13 16 26 23 19 17 13 13 8 4 1 2 3 4 4 1 2 4 4 5
16 20 25 21 24 21 18 18 18 20 14 9 22 4 8 6 6 9 9 5 10 17 19 16 14 20 26 21 19 16 16 10 11 5 3 2 2 3 3 3 3 4 5 5
26 6 20 23 18 22 23 10 12 12 8 11 15 7 15 5 8 5 2 6 10 9 9 9 17 24 22 21 18 19 15 12 9 8 5 2 3 6 7 4 4 1 5 8
14 24 17 15 21 19 13 10 4 3 3 11 9 6 10 6 8 8 9 8 8 9 12 14 14 10 19 21 21 17 13 12 9 6 9 2 3 6 7 4 2 2 7 12
17 12 26 20 20 18 19 14 8 7 6 4 6 5 10 9 5 7 7 10 10 9 11 13 12 13 19 24 22 18 14 12 9 9 9 5 4 7 7 4 3 4 8 11
16 15 9 21 18 19 14 15 21 4 3 2 4 7 9 7 6 6 10 12 11 11 12 14 11 16 21 25 23 19 16 13 9 12 9 6 6 6 7 7 6 7 10 10
5 4 15 16 14 24 25 6 7 2 10 6 4 4 5 1 7 6 8 10 8 8 11 12 11 15 24 25 23 18 16 17 13 10 8 7 7 6 7 7 8 10 9 8
9 3 5 15 21 27 10 10 6 5 6 8 3 7 8 13 11 16 13 13 14 14 14 13 10 19 26 25 21 16 16 15 16 10 8 7 8 6 6 7 8 9 8 8
24 5 11 21 4 16 15 15 10 9 5 2 6 9 4 11 15 17 12 12 12 12 13 12 11 16 21 24 20 17 18 17 15 11 8 7 8 9 10 8 9 9 8 11
10 15 6 7 2 7 15 14 8 5 5 8 7 7 3 5 12 13 14 10 11 12 12 11 9 10 16 22 23 19 16 16 16 13 10 11 9 9 8 8 9 10 12 13
10 6 26 14 12 5 6 18 13 8 5 6 8 5 4 2 14 9 11 14 16 16 16 14 11 10 16 22 25 20 17 19 18 17 12 16 11 8 9 9 10 14 14 15
10 12 20 29 16 3 6 17 17 16 12 11 7 10 8 10 16 17 14 13 15 15 16 15 14 12 14 21 25 23 20 21 22 20 16 15 13 11 11 12 13 13 16 15
9 6 11 22 28 26 16 13 22 15 8 8 12 8 8 16 8 9 15 17 17 18 18 17 15 14 13 20 24 27 22 22 28 23 19 16 15 12 14 17 18 17 14 13
5 5 6 20 16 18 17 19 17 17 14 12 10 7 8 7 15 17 15 19 20 19 19 18 18 16 19 23 28 28 26 27 31 26 23 19 12 13 21 21 19 19 15 16
9 4 3 6 8 8 7 11 15 22 17 10 5 10 12 13 15 18 20 20 18 18 19 18 16 18 24 28 33 33 28 31 33 29 25 22 14 19 20 22 20 17 18 17
17 7 5 4 10 4 3 5 10 8 6 9 16 11 11 7 7 5 18 20 21 20 19 18 28 29 28 32 36 35 30 33 32 31 28 26 18 20 18 21 22 22 17 19
14 15 3 4 7 6 2 8 10 8 12 10 12 12 10 9 7 5 16 16 15 16 17 19 26 27 29 30 35 32 29 30 29 32 32 29 24 22 21 22 26 24 19 19
6 3 11 5 4 3 15 22 0 11 5 16 12 13 10 9 7 9 19 14 15 18 18 24 26 28 33 33 36 27 29 28 35 37 35 32 30 26 23 24 24 24 22 20
4 5 3 4 1 4 24 7 8 9 15 18 7 10 12 10 8 8 19 18 17 16 14 24 24 25 29 35 34 27 28 37 36 34 36 35 34 32 28 28 25 22 21 22
3 4 4 4 1 6 6 6 5 9 12 18 17 16 13 10 9 12 15 16 17 19 17 28 26 24 27 35 36 29 32 40 39 34 33 38 36 35 32 32 29 26 23 21
3 6 3 8 2 16 10 9 13 16 18 19 20 17 7 12 11 9 13 15 16 17 16 25 23 20 23 31 35 37 38 41 39 36 33 37 38 34 35 34 36 31 28 25
2 4 6 6 9 17 2 15 18 21 21 23 25 21 17 10 10 9 9 14 15 16 20 26 22 22 27 32 32 33 40 41 35 37 34 35 37 37 35 35 37 36 32 31
5 3 2 4 12 6 14 13 15 18 24 24 24 24 22 12 8 8 10 13 14 16 21 20 24 26 28 32 33 35 40 41 36 31 31 33 32 32 32 34 31 34 32 28

GFSCGP_925_spd_003.txt.gz
Wind_Speed
9 8 19 22 19 13 13 10 16 16 5 7 9 9 17 19 9 15 15 15 13 14 3 16 25 30 35 32 29 24 21 16 13 10 6 5 8 8 8 9 9 9 10 10
6 25 17 10 13 15 13 10 17 15 17 4 13 15 17 18 14 16 20 13 13 4 4 7 20 30 33 33 28 23 18 16 12 7 5 6 6 5 7 7 7 8 6 9
23 14 15 16 13 16 17 19 20 18 11 7 10 12 17 20 10 10 8 6 5 11 11 11 14 21 30 32 28 22 19 14 10 6 3 3 4 4 4 4 5 5 4 6
17 23 13 23 20 19 19 18 19 16 8 9 4 5 6 8 11 7 10 7 10 8 6 12 15 15 24 29 24 20 18 13 11 7 3 3 3 3 3 2 3 3 3 4
18 18 25 18 29 19 19 13 13 8 8 6 18 4 6 4 10 11 10 9 10 8 10 15 14 18 27 26 23 20 17 15 12 8 4 3 3 2 2 1 1 3 4 4
18 10 18 28 8 18 9 3 4 7 1 9 20 5 11 6 8 6 6 6 2 7 10 9 13 23 22 22 20 19 18 14 13 9 7 4 1 2 4 3 2 3 5 5
8 20 6 12 21 13 11 6 3 3 4 8 8 5 15 11 10 12 10 4 8 8 10 13 16 10 18 21 20 20 18 15 13 8 8 4 3 4 3 3 2 1 6 9
13 10 27 14 20 12 23 17 6 6 4 4 7 7 11 10 12 10 9 6 8 9 9 12 13 11 18 23 22 21 17 14 12 8 10 5 4 4 2 1 2 5 9 12
14 14 3 21 10 19 14 15 13 3 1 2 4 7 9 3 3 3 5 8 9 9 11 13 11 13 20 24 25 21 16 13 11 10 9 7 5 5 3 3 4 8 11 11
2 1 8 16 18 19 9 9 9 4 4 4 5 5 6 3 3 5 7 8 7 7 9 10 9 13 22 27 25 19 16 14 12 12 10 8 7 5 4 4 6 9 10 9
4 2 5 14 17 21 6 16 2 7 5 6 1 7 8 9 9 12 9 9 12 12 12 12 9 15 24 26 23 19 16 15 12 12 10 8 8 5 5 4 7 7 8 9
7 5 12 10 2 18 24 19 20 8 8 2 4 12 4 7 9 9 9 9 8 9 13 11 11 14 18 23 22 19 16 16 15 12 11 7 9 6 6 5 7 6 7 9
10 6 4 4 6 4 15 23 16 7 3 7 6 8 1 4 7 10 10 8 10 10 9 9 8 10 13 21 22 18 17 18 16 12 11 10 9 7 5 5 8 7 9 10
7 5 15 15 6 5 5 17 18 15 10 11 9 6 3 3 7 7 7 8 12 13 13 11 9 9 14 21 23 20 19 17 17 14 12 13 8 7 6 6 10 10 11 14
4 4 6 21 19 6 6 11 20 20 20 15 16 9 7 8 10 15 9 8 11 11 11 13 11 9 11 18 23 23 20 18 18 16 14 13 9 8 9 10 12 11 12 13
6 4 10 7 15 24 19 5 19 20 12 10 8 9 8 7 8 7 11 14 14 15 15 14 12 11 11 18 24 24 22 19 20 19 17 14 11 12 12 12 13 14 12 9
2 4 10 8 9 9 15 23 7 10 9 14 8 9 7 4 10 12 11 15 17 17 17 16 16 14 17 21 27 26 25 22 23 22 19 16 14 14 16 16 16 14 11 12
8 5 4 5 3 8 10 7 15 10 9 10 3 10 13 12 17 15 16 19 15 15 17 16 14 15 21 26 29 30 26 25 27 25 22 18 14 13 21 18 17 12 11 14
12 5 3 3 3 4 3 8 6 3 6 8 8 8 9 8 6 2 8 15 20 19 19 15 23 25 25 29 32 30 27 27 29 28 25 22 15 17 20 21 18 15 13 14
13 12 3 4 3 7 5 18 17 11 3 16 17 14 2 11 9 6 11 11 9 10 16 16 23 24 26 29 32 30 28 27 26 30 28 26 19 20 18 21 20 17 14 15
8 1 5 2 4 3 16 22 18 8 5 17 18 15 13 7 10 17 14 14 15 16 17 22 24 25 31 32 33 25 26 27 35 34 30 28 25 23 20 18 22 20 17 17
2 5 1 1 3 2 22 8 8 6 8 13 17 14 14 15 6 7 17 18 15 13 15 23 21 23 27 33 33 25 26 36 36 35 33 30 29 25 24 23 25 23 21 20
2 3 4 3 3 2 7 3 4 3 6 12 16 18 14 14 8 9 12 16 18 17 16 26 24 22 27 33 34 27 30 34 37 35 35 33 33 29 27 28 27 25 24 22
2 3 2 8 2 8 10 5 4 7 8 13 15 16 13 10 6 9 11 14 14 13 14 23 21 17 21 31 33 38 33 38 37 35 35 36 34 33 30 30 30 28 26 27
3 3 3 5 12 13 6 11 10 12 12 14 17 15 14 14 10 5 9 14 15 16 16 23 22 20 24 31 32 31 36 37 34 35 36 34 35 36 33 32 33 33 30 28
4 3 1 3 12 8 10 9 15 9 12 13 17 21 18 15 14 9 3 9 15 15 19 18 22 23 24 29 30 34 39 39 34 29 31 33 30 32 31 33 30 31 32 31

GFSCGP_925_spd_006.txt.gz
Wind_Speed
7 7 21 23 15 7 6 14 14 2 4 6 9 9 14 18 7 10 14 16 14 13 5 7 19 23 26 30 36 35 29 24 21 18 13 10 6 7 8 8 8 8 9 10
6 28 20 11 14 13 9 12 17 11 3 7 10 13 15 16 16 10 15 19 15 6 3 5 15 25 34 38 39 32 27 24 21 17 11 4 4 5 6 7 6 7 6 7
27 22 12 15 9 13 14 18 17 11 7 6 7 12 11 13 9 7 10 12 9 10 10 7 9 16 24 31 36 31 26 23 19 12 7 4 3 4 6 5 4 5 4 4
17 21 21 13 19 15 19 16 15 12 4 9 5 6 10 9 17 9 11 9 10 7 2 6 8 11 22 27 33 28 24 21 16 11 6 4 2 2 3 2 3 2 1 1
13 18 23 23 25 20 13 7 7 7 7 2 5 5 6 5 9 14 11 11 10 5 8 8 9 17 24 33 30 26 23 19 15 11 6 4 1 3 2 1 1 3 2 3
14 5 19 16 8 13 5 3 4 4 1 9 14 7 5 6 11 6 6 5 4 6 8 9 12 22 25 29 26 24 21 18 14 11 7 3 2 3 3 2 3 3 4 5
5 9 3 7 15 4 7 7 1 4 1 5 6 6 14 10 9 9 12 8 3 3 11 12 16 12 19 24 25 23 21 16 13 10 7 4 3 3 0 2 3 2 5 7
8 5 15 7 10 13 15 10 6 6 3 5 6 8 9 13 14 10 10 4 8 7 9 12 13 12 19 24 25 22 20 15 14 9 7 5 4 2 0 1 1 2 5 10
8 7 3 14 7 17 12 10 12 1 2 1 4 7 8 6 9 6 1 5 7 7 8 12 11 14 20 25 24 23 18 14 13 10 10 6 5 3 1 1 3 6 8 10
3 2 7 13 8 19 9 11 7 7 6 4 5 5 6 2 6 4 5 8 7 7 8 10 9 13 21 26 24 21 17 14 12 10 9 8 6 4 4 4 6 8 8 9
2 3 3 10 13 17 5 7 3 8 5 5 1 6 7 8 9 9 9 9 9 13 11 12 9 15 23 24 23 19 15 14 11 11 9 8 7 6 6 5 7 7 6 8
3 2 4 10 7 21 22 15 8 7 5 4 4 6 3 9 7 7 7 7 7 6 9 10 11 13 18 22 22 19 15 13 12 12 9 7 8 7 7 6 8 5 6 7
8 4 2 5 3 2 22 19 16 5 4 14 8 6 3 5 6 5 8 9 8 7 9 8 8 9 13 20 22 18 15 14 12 11 10 8 8 8 6 7 8 6 7 8
8 3 5 10 6 5 5 15 19 12 5 3 11 1 5 3 7 5 7 7 9 8 10 10 8 8 13 20 22 18 15 14 14 11 11 11 7 7 7 10 8 8 8 11
2 4 4 10 13 7 6 12 19 18 22 13 5 8 7 8 9 7 8 9 11 11 11 13 12 9 10 16 21 19 17 16 16 14 13 11 8 9 10 14 12 11 11 10
3 4 6 4 7 16 13 10 16 23 21 18 3 10 9 3 6 6 11 12 12 12 13 12 12 11 10 17 22 20 19 17 18 16 14 12 11 11 12 15 15 13 12 10
3 4 7 5 7 4 9 18 11 8 12 18 12 24 5 4 8 10 11 13 14 15 15 15 15 14 16 21 27 24 22 18 19 18 16 15 14 13 13 15 14 13 10 11
4 5 2 4 5 5 3 12 9 14 7 8 8 5 7 11 16 12 12 16 15 14 14 14 13 13 20 26 29 26 22 20 21 20 18 17 18 17 15 15 13 10 9 12
8 2 2 2 2 3 6 10 8 5 4 10 9 12 10 14 7 1 7 11 20 21 18 15 23 24 26 30 32 27 23 22 22 23 20 18 17 19 20 18 13 9 10 12
8 11 5 0 2 4 9 16 7 3 4 13 12 12 13 12 4 6 12 11 10 11 13 16 23 23 28 29 34 29 26 24 24 26 24 22 18 21 24 19 15 11 10 10
2 1 4 2 2 1 13 17 1 6 5 14 11 11 10 5 5 15 16 9 14 16 18 23 24 25 30 32 34 26 26 25 29 27 26 23 20 22 23 22 19 15 12 13
1 1 0 3 1 2 16 5 7 5 6 8 10 8 13 14 17 14 12 8 15 16 18 23 23 22 27 34 32 24 25 34 29 27 28 24 23 21 21 22 22 19 17 15
2 2 2 4 2 7 10 2 1 4 7 8 9 14 12 14 15 15 11 9 13 18 17 26 24 22 25 34 34 27 33 33 30 27 29 27 26 22 22 21 23 22 21 19
1 1 0 4 6 13 16 5 6 10 10 13 12 13 12 13 14 14 11 7 9 12 15 24 23 19 22 30 35 38 35 35 33 29 30 29 26 25 24 23 24 25 24 22
1 3 2 2 7 13 6 10 14 17 14 13 14 13 12 13 13 10 10 7 11 11 17 25 22 22 25 29 29 30 35 36 33 32 31 31 29 29 26 26 26 27 25 25
3 4 1 1 2 6 12 14 17 15 13 14 13 17 17 13 15 12 10 6 9 11 16 19 22 21 25 31 31 33 37 39 36 29 30 32 31 30 30 27 24 26 28 28

GFSCGP_925_spd_009.txt.gz
Wind_Speed
19 12 28 30 24 19 20 22 28 21 13 15 18 18 13 17 18 21 19 19 20 19 19 7 4 11 17 22 28 30 30 29 26 18 13 9 9 10 11 10 9 8 8 9
13 29 26 22 23 22 23 24 21 14 10 12 16 20 15 18 23 21 19 19 20 17 15 3 5 8 18 23 24 29 30 30 24 17 12 7 7 8 7 7 6 5 5 6
28 39 18 20 22 24 26 26 24 20 15 15 16 23 20 20 12 16 17 19 19 16 13 4 6 10 12 20 25 28 27 27 22 16 13 9 7 5 4 3 2 3 5 5
22 23 25 26 29 22 26 24 20 19 11 15 3 16 18 20 22 21 21 16 16 12 7 5 9 11 15 17 23 25 24 23 20 17 11 8 6 4 2 1 1 1 2 2
19 21 21 26 24 26 17 13 16 17 17 17 17 11 10 13 21 24 20 18 10 5 3 7 10 14 18 22 23 21 21 20 18 15 10 8 5 3 2 1 2 2 2 3
19 11 26 28 19 21 13 8 10 6 7 12 15 11 13 15 19 16 13 9 2 2 5 8 12 17 20 23 22 20 20 17 16 14 11 7 4 3 2 2 2 3 3 4
17 19 6 15 17 17 20 14 6 7 7 9 14 12 18 15 19 18 18 6 1 4 9 11 15 15 23 23 22 20 19 16 14 12 10 6 3 3 1 1 2 2 4 6
14 12 21 20 18 14 25 20 8 7 6 9 5 9 7 17 18 22 16 9 4 8 9 10 14 17 23 23 21 20 18 15 14 11 9 7 4 3 2 1 1 2 6 8
12 14 14 22 14 21 19 19 15 5 1 5 4 6 10 17 14 11 10 5 7 10 11 13 15 20 23 22 22 21 18 14 13 11 9 7 5 3 3 3 3 5 9 9
7 11 13 20 22 24 18 19 10 9 9 9 6 5 8 6 9 8 8 8 9 11 13 14 16 18 20 20 19 18 16 14 13 10 9 7 6 5 4 5 6 7 9 8
10 7 14 18 21 22 11 18 7 10 6 5 3 5 9 14 8 7 2 9 12 12 13 15 15 18 19 18 18 17 15 13 11 10 9 8 7 6 6 6 7 7 8 7
7 6 6 24 13 18 20 21 19 9 10 10 2 5 1 8 7 7 2 8 13 12 14 15 15 18 18 19 18 16 14 12 11 10 8 7 8 7 7 6 6 6 8 8
8 5 10 8 7 15 25 21 17 6 5 16 10 4 3 4 4 1 4 10 13 14 15 15 16 15 18 19 18 16 14 12 10 10 8 8 8 7 7 7 7 6 8 8
8 4 11 11 9 2 25 24 20 15 9 9 17 12 19 14 6 6 5 9 13 15 17 17 16 15 18 19 19 16 13 11 10 10 9 8 7 7 7 8 8 7 9 9
6 3 6 15 11 8 15 20 24 22 17 11 7 22 19 14 10 4 7 10 13 16 17 18 17 15 17 19 17 16 13 12 12 10 10 8 8 8 9 9 8 9 9 8
6 2 8 9 14 11 8 6 15 25 23 21 16 18 13 14 9 3 9 14 15 16 17 18 18 17 16 20 19 16 14 14 14 12 11 10 10 10 12 11 10 9 9 9
1 4 4 5 5 6 10 14 9 12 20 20 21 26 15 16 14 8 10 17 18 18 20 20 20 18 20 21 20 18 16 15 14 13 13 11 11 12 13 12 11 10 8 8
4 2 3 3 4 14 4 9 3 12 9 11 11 10 11 11 18 17 12 18 19 17 19 19 18 19 22 23 21 19 18 16 15 14 15 13 12 12 13 12 10 8 8 8
11 2 3 2 5 5 4 10 6 1 5 11 9 11 13 14 15 15 9 14 17 22 20 19 25 25 24 24 23 21 19 17 16 16 17 16 16 14 13 12 9 7 9 8
1 8 4 3 4 6 7 13 6 4 5 13 11 11 13 13 10 2 15 13 8 13 17 20 27 25 24 24 24 22 20 19 17 18 18 18 18 16 15 13 11 8 8 9
2 3 8 4 1 3 14 14 12 8 4 13 13 13 12 9 10 21 19 15 9 13 15 26 27 26 26 26 25 24 22 21 20 17 18 17 16 16 17 15 12 11 10 11
1 1 3 3 3 5 16 3 4 5 8 11 12 13 14 14 17 17 16 14 9 15 19 26 25 25 27 27 27 25 23 23 20 18 19 18 16 15 16 16 13 12 13 12
1 3 1 4 3 6 8 4 7 8 9 11 12 15 14 15 16 15 14 13 9 16 15 23 26 26 26 28 29 27 26 23 21 18 19 19 17 15 16 17 15 13 12 13
1 2 1 2 5 10 5 7 10 12 12 13 14 14 14 15 16 15 13 11 8 14 17 24 24 25 26 29 30 30 27 25 23 20 19 19 20 17 15 15 16 16 15 13
3 3 5 2 7 8 2 12 15 16 15 17 16 15 15 16 16 15 13 12 8 13 19 26 25 25 29 32 30 27 28 27 25 22 20 19 20 22 18 16 16 17 17 17
5 4 3 2 7 7 12 13 18 15 17 19 17 19 17 16 17 18 13 11 9 13 21 21 24 22 27 32 31 30 29 30 28 24 22 22 22 21 20 19 15 19 18 22

GFSCGP_925_spd_015.txt.gz
Wind_Speed
24 19 27 44 36 32 30 27 33 32 27 28 31 31 24 22 26 27 26 28 24 23 24 30 27 8 9 11 12 17 21 23 26 25 24 22 19 15 13 12 11 11 11 11
24 31 48 26 31 31 33 31 33 29 28 23 25 28 25 24 24 26 28 27 26 24 26 23 18 8 8 11 14 17 21 23 25 22 22 19 15 13 12 11 10 9 10 11
31 45 26 32 32 32 32 33 28 30 24 21 22 28 28 26 27 28 28 29 28 27 24 19 17 8 9 12 16 19 22 24 24 21 17 13 11 6 7 9 11 11 8 9
30 34 34 32 34 35 33 29 27 25 21 18 21 23 25 18 24 23 23 22 22 21 20 19 11 10 12 13 16 19 22 24 21 20 17 15 13 11 9 5 3 4 6 8
31 31 35 35 42 31 36 25 25 25 21 22 24 17 18 21 22 23 24 23 21 20 20 19 11 12 14 16 19 22 23 23 21 17 15 14 9 9 5 5 3 5 5 6
32 27 29 40 34 29 29 27 25 20 17 20 22 20 22 21 20 20 20 16 19 19 17 6 12 16 17 19 22 24 25 21 19 16 13 10 8 3 3 5 2 3 6 6
30 31 28 30 32 36 27 23 16 16 17 21 18 20 23 20 18 17 16 12 5 10 10 12 15 15 20 22 24 25 24 21 18 16 13 10 7 5 4 3 9 6 4 4
24 26 33 27 30 37 31 28 17 28 12 16 22 18 16 17 10 9 11 12 9 8 11 14 15 16 21 24 25 24 22 21 18 15 13 9 7 9 5 3 5 4 4 8
17 30 28 34 25 26 40 27 32 24 20 14 13 16 15 17 14 9 10 14 13 11 14 16 17 16 23 24 23 23 21 19 17 15 12 9 7 2 6 3 2 4 6 7
17 21 31 27 29 32 33 29 22 21 24 15 14 10 8 2 7 13 10 13 13 14 16 16 16 17 22 23 22 21 20 18 16 14 12 11 8 5 4 3 2 6 6 6
21 4 16 29 33 31 26 23 30 21 18 15 11 9 2 5 2 15 14 13 15 17 17 17 17 20 23 22 21 20 18 17 15 14 12 12 8 6 5 4 6 8 7 6
16 6 12 28 28 30 30 27 31 16 22 17 11 4 4 9 7 5 3 11 15 17 18 18 18 19 22 22 21 19 17 16 15 13 11 11 8 6 5 7 7 9 7 6
8 10 13 8 19 28 32 34 26 27 16 19 9 4 8 9 6 1 3 13 15 17 18 18 18 17 16 20 21 19 17 16 16 14 12 9 7 6 6 7 8 8 8 6
10 14 17 6 13 22 28 33 30 28 17 18 19 12 13 14 11 10 7 12 15 17 18 18 17 16 17 20 20 18 17 17 15 13 11 12 8 6 8 8 9 9 8 7
5 17 25 7 23 23 25 28 24 31 20 16 18 14 14 13 13 8 8 12 15 16 17 17 17 16 16 19 19 18 17 17 15 12 10 12 8 9 9 10 9 9 8 8
9 10 17 17 20 32 23 31 27 23 27 18 12 18 12 4 11 7 9 10 13 15 16 16 17 17 16 19 19 18 17 17 15 12 13 11 10 10 10 10 10 9 8 6
8 6 6 16 20 26 14 19 27 25 24 17 12 6 8 6 7 13 9 6 10 13 14 15 16 16 16 20 19 19 18 17 16 14 14 12 12 12 12 11 11 10 8 8
13 10 4 4 12 10 9 8 24 19 20 16 14 4 11 9 5 6 7 7 7 11 13 14 14 14 19 21 21 19 19 18 17 15 15 15 15 14 13 11 9 8 8 7
10 4 5 4 10 12 4 7 4 21 13 10 4 3 10 7 6 8 7 8 8 13 14 14 18 19 20 21 22 21 20 19 17 16 16 16 16 15 13 10 9 7 7 7
5 5 4 6 9 7 8 6 6 5 11 8 6 6 6 7 9 9 8 8 8 14 14 14 21 22 21 22 23 22 21 20 18 18 17 18 17 14 12 10 9 7 6 5
3 2 7 11 7 6 10 11 5 11 6 5 7 8 6 6 9 10 9 6 6 9 6 17 21 21 22 23 23 21 22 20 19 19 18 18 17 15 14 10 9 8 6 8
3 3 6 5 1 5 16 3 4 7 6 8 7 8 7 7 8 8 7 5 5 5 11 18 19 22 24 25 24 21 21 22 21 20 20 19 18 17 15 12 9 8 8 9
0 4 3 3 2 12 14 14 12 10 9 9 7 7 7 8 9 8 6 5 5 6 10 18 20 22 24 26 26 22 23 23 23 22 21 19 19 16 15 13 11 10 8 11
2 7 3 2 9 6 12 12 10 11 9 10 11 8 9 10 10 10 8 5 4 4 10 18 21 20 22 26 26 24 24 24 24 23 22 21 20 16 16 15 13 11 10 8
4 6 5 0 12 10 13 11 9 10 10 11 12 12 11 11 11 12 9 8 4 4 8 16 18 20 24 26 27 25 25 26 25 24 23 22 21 20 18 16 14 12 11 10
3 4 4 2 4 6 11 11 12 12 12 11 12 11 11 11 11 12 10 10 10 6 6 14 19 22 26 27 28 28 27 27 26 23 24 24 22 23 20 19 12 9 8 9

GFSCGP_925_spd_021.txt.gz
Wind_Speed
8 8 21 36 24 15 15 18 21 20 18 15 23 25 25 21 12 14 14 14 15 14 11 15 10 14 18 11 11 23 26 30 33 33 31 28 22 21 21 13 19 16 16 14
10 22 26 17 16 18 19 23 24 15 12 13 20 18 22 23 14 17 22 11 11 8 8 9 13 20 15 18 17 19 25 32 32 31 28 29 24 24 20 14 16 16 17 14
16 17 17 21 19 19 25 26 20 19 10 17 15 15 19 17 15 8 10 9 9 12 11 10 10 10 19 19 21 21 24 32 29 31 26 23 20 18 19 16 17 18 15 13
16 19 22 19 22 21 24 15 21 18 11 16 10 16 21 13 17 19 18 14 19 14 15 13 10 7 22 21 22 24 23 29 25 29 26 27 19 15 16 21 20 17 15 11
23 14 9 19 22 20 24 15 18 13 16 17 19 9 18 9 8 9 10 11 11 13 13 12 8 13 23 24 23 22 26 27 25 26 22 20 19 17 19 14 15 16 13 10
17 15 17 17 17 19 17 16 18 16 12 11 19 15 25 14 11 9 9 10 12 11 9 6 14 23 22 27 26 27 27 22 22 22 20 19 15 12 19 20 19 16 12 8
12 14 18 19 18 17 16 12 6 10 10 17 14 12 18 7 13 22 15 13 6 8 13 18 19 15 19 22 27 27 25 21 20 22 19 15 16 15 15 15 12 12 8 5
9 9 9 10 17 11 13 15 9 13 12 17 13 8 11 19 12 10 10 8 8 11 13 12 14 14 18 22 26 24 24 24 20 20 17 14 13 12 10 7 9 10 7 5
5 8 12 17 16 13 19 16 20 17 10 8 5 13 21 26 20 11 14 10 11 14 14 15 12 11 19 22 24 26 27 22 20 19 19 14 10 10 13 10 8 8 7 8
1 7 8 16 14 14 18 11 7 11 13 13 7 13 12 12 19 16 8 15 13 14 15 13 11 13 20 23 28 27 25 22 21 19 19 15 16 12 9 9 10 8 10 7
7 4 9 10 3 8 7 16 11 9 7 11 6 10 11 19 15 11 12 17 17 16 16 13 12 17 20 24 27 28 25 22 22 19 18 14 13 13 11 9 9 10 8 13
3 3 6 13 18 17 18 21 16 9 19 9 4 9 8 6 7 10 14 17 16 18 15 15 16 13 17 21 25 26 25 23 22 19 16 15 14 12 11 9 10 12 9 11
4 3 5 8 6 8 7 12 15 7 5 20 10 13 4 11 7 10 19 18 17 17 16 16 15 12 12 17 22 25 23 23 21 20 17 15 17 13 10 12 11 12 11 8
5 3 6 8 10 8 11 20 16 11 9 8 13 19 10 13 8 17 18 18 19 17 18 16 13 12 13 19 20 24 23 23 20 17 20 19 15 12 13 13 12 14 10 6
3 4 10 15 18 12 16 19 19 16 15 11 16 8 12 6 9 15 17 19 18 17 17 15 13 12 12 16 21 25 22 22 20 23 23 19 14 15 15 12 12 10 10 7
4 3 10 13 14 11 17 20 19 20 22 17 20 19 6 1 9 11 16 18 17 18 18 15 15 14 13 17 21 24 25 22 20 25 23 20 18 16 12 12 11 10 8 11
8 5 3 5 9 8 8 16 18 14 18 21 18 17 8 8 11 9 9 15 17 18 17 16 15 14 13 21 27 23 24 22 26 24 22 22 15 16 14 12 13 10 10 9
12 3 0 4 2 4 5 10 16 16 15 19 10 18 9 12 14 11 9 10 9 20 16 14 13 11 22 28 29 22 28 22 26 18 21 21 21 18 15 14 14 11 10 9
13 4 3 3 3 12 13 10 10 7 8 19 20 22 7 1 18 9 8 5 6 6 9 14 21 23 27 30 29 28 25 22 19 20 24 25 22 18 16 14 13 10 9 10
4 9 4 3 5 6 6 21 23 19 5 11 10 10 8 5 7 2 4 3 7 7 3 13 24 27 28 32 29 28 25 22 18 25 26 26 21 18 19 13 12 8 8 10
1 1 5 3 2 3 12 25 29 5 1 6 7 6 8 6 2 3 4 5 4 4 4 23 27 23 28 35 30 24 25 20 19 29 30 27 24 16 18 16 12 10 11 15
4 4 1 2 1 2 15 16 7 6 9 7 8 7 6 5 5 5 6 7 5 6 6 21 19 21 28 36 30 23 22 21 17 29 30 27 23 22 19 15 13 15 17 19
2 5 2 5 4 4 12 16 11 7 8 8 6 7 7 8 8 7 7 8 5 6 4 18 22 20 25 34 31 21 26 21 18 31 31 32 29 25 20 17 20 18 19 21
6 8 3 1 5 6 10 14 13 13 14 14 12 8 9 8 9 11 13 13 13 6 3 9 22 18 18 29 31 24 28 22 22 29 34 31 29 25 21 18 18 19 19 20
2 5 7 2 5 4 9 16 16 15 14 11 12 8 12 12 11 13 14 13 14 12 9 6 17 19 21 30 30 25 29 24 23 32 32 29 30 29 24 19 17 17 19 22
3 2 2 2 8 4 4 7 15 14 9 9 10 10 12 14 13 16 14 11 11 12 22 8 20 22 24 28 30 26 31 27 27 28 27 28 29 29 28 22 11 13 12 18

GFSCGP_925_spd_024.txt.gz
Wind_Speed
4 4 18 27 16 8 10 11 10 5 10 11 22 24 21 17 16 12 13 17 19 19 17 21 24 22 18 17 19 20 24 31 32 32 31 30 31 29 29 26 27 24 28 28
4 19 12 9 6 10 14 16 19 6 9 15 18 28 24 23 22 19 21 20 17 15 9 10 15 20 19 22 24 21 26 31 35 31 30 26 32 31 30 25 21 22 25 25
11 6 8 15 12 16 16 19 12 8 12 22 9 19 8 15 11 10 10 15 10 12 11 10 10 19 16 18 21 23 27 29 31 32 29 24 27 25 19 21 20 24 24 22
10 11 14 14 16 18 19 12 13 16 13 13 8 19 22 14 22 16 12 11 12 14 9 10 12 7 16 19 20 22 23 27 27 30 33 33 22 20 19 21 20 24 23 19
11 9 4 14 17 15 19 10 16 13 8 15 16 6 25 10 16 17 15 14 11 11 11 11 10 9 19 25 25 24 25 26 30 30 30 30 27 21 20 18 19 21 18 13
14 11 14 12 12 11 6 9 15 12 2 8 14 11 9 14 15 8 9 9 11 11 10 8 4 15 18 27 28 29 30 30 29 26 27 27 25 20 19 18 21 19 16 12
7 13 11 12 12 10 4 1 3 2 5 16 12 10 21 9 8 15 16 15 14 8 4 7 11 12 14 20 26 29 31 29 26 25 24 23 21 21 24 24 23 19 15 13
5 5 6 2 1 7 7 9 5 7 4 4 12 9 7 16 20 26 21 18 4 5 6 7 7 9 15 20 23 26 29 28 28 26 24 22 22 22 21 19 18 17 13 8
5 3 6 9 6 4 4 10 5 6 15 1 5 8 9 19 24 21 19 8 8 8 9 11 10 10 16 17 24 28 29 30 28 28 25 21 19 19 18 16 15 12 8 7
4 4 4 6 6 4 7 5 5 3 7 6 5 6 8 7 11 12 12 10 8 8 11 11 11 11 16 21 27 29 29 30 28 25 21 21 19 17 14 11 11 8 9 11
3 2 4 4 4 6 3 1 3 3 4 8 3 6 11 11 13 18 8 14 16 14 13 12 11 13 18 22 25 27 28 27 26 23 21 20 17 13 12 10 11 12 12 10
2 1 3 8 11 12 4 6 5 3 6 5 2 12 17 8 12 12 14 16 13 13 12 13 12 12 17 18 24 26 25 25 25 22 21 20 19 17 15 12 12 11 11 11
3 2 4 9 2 0 4 3 2 4 5 16 8 8 12 3 12 5 18 15 15 14 15 14 13 12 11 17 20 24 25 25 25 21 18 19 17 17 13 13 13 12 9 10
2 3 5 5 5 7 6 9 6 1 3 11 16 15 25 16 13 3 13 16 17 16 17 14 13 12 13 18 19 23 26 26 24 22 20 18 19 16 14 13 10 11 10 7
3 5 6 12 16 17 14 15 10 9 8 4 6 14 17 14 11 14 16 17 18 17 17 15 14 13 11 16 19 25 28 26 24 20 21 20 17 14 15 14 11 10 9 6
8 4 4 16 18 18 18 14 14 13 12 11 18 21 18 13 1 12 18 20 18 18 17 16 16 15 13 17 20 25 27 25 22 20 19 21 17 16 16 12 13 10 9 7
8 4 2 7 14 8 6 13 11 5 8 4 7 6 14 6 8 5 13 18 19 18 17 17 17 15 15 21 23 25 26 24 22 21 20 21 20 17 14 14 11 9 7 9
6 4 3 5 9 5 3 11 9 13 11 9 12 18 13 3 6 7 8 10 18 18 17 16 15 14 22 24 27 30 28 24 22 21 20 24 20 18 15 13 12 11 10 9
11 4 2 3 3 4 3 8 7 6 5 4 11 9 9 5 7 6 6 5 12 18 17 16 22 23 24 27 31 30 28 26 24 20 22 22 20 19 16 15 15 12 11 11
2 9 7 2 4 3 2 12 13 9 3 6 13 7 3 7 4 2 4 7 4 8 9 14 23 24 26 25 32 28 26 25 21 21 25 25 23 20 17 14 13 10 10 10
2 2 10 8 3 4 6 17 23 6 1 18 14 13 6 7 4 5 7 2 3 4 12 21 24 24 26 31 32 25 28 24 25 26 29 26 23 20 17 14 12 9 8 11
3 3 2 2 2 2 12 15 5 5 8 13 15 9 4 10 6 1 1 3 7 7 15 23 19 20 26 32 30 23 24 25 25 26 31 28 25 23 20 17 13 11 11 13
2 3 3 4 2 6 14 10 13 11 12 12 14 12 14 10 5 5 7 7 8 7 11 20 21 19 23 31 31 23 29 24 29 29 31 29 25 23 20 17 15 16 16 17
2 4 1 3 3 7 15 14 12 12 12 17 18 8 15 13 9 8 12 12 11 9 4 13 19 17 17 27 31 34 29 23 32 30 30 30 27 23 19 17 17 18 18 17
1 2 5 4 7 5 9 10 13 15 17 19 12 16 15 15 12 10 13 14 12 11 13 14 14 16 19 27 31 32 29 25 29 31 31 30 28 25 22 18 20 19 18 20
3 2 2 2 6 4 6 8 8 14 17 24 8 14 14 16 14 13 13 11 10 13 20 10 13 19 22 26 31 31 31 27 31 24 26 27 29 25 23 20 16 15 16 19

GFSCGP_925_spd_027.txt.gz
Wind_Speed
4 5 15 19 16 10 5 6 2 4 7 13 18 27 21 13 15 20 21 21 21 21 12 21 29 40 37 35 29 26 26 31 32 33 29 28 31 31 29 29 27 25 25 24
2 17 8 3 5 11 11 10 8 6 11 5 10 21 16 12 15 17 17 15 15 12 14 15 21 28 30 30 29 31 33 29 32 30 26 16 25 26 28 24 23 25 24 24
6 6 9 9 4 6 5 9 9 6 9 16 9 20 12 10 13 18 20 18 13 12 14 13 12 18 28 24 28 25 27 28 28 26 22 15 20 21 20 22 23 20 22 23
7 9 8 6 12 13 15 4 7 5 5 9 6 15 20 20 20 13 15 14 10 13 12 9 13 12 16 27 22 20 22 22 23 24 25 29 19 19 20 33 24 23 24 24
7 3 4 13 11 6 6 11 9 10 8 4 4 4 28 8 14 20 20 15 18 16 10 13 13 10 20 19 21 20 20 21 23 27 29 30 25 19 27 29 27 24 23 22
10 9 6 7 10 8 4 7 9 6 3 6 12 9 27 10 15 9 9 10 12 11 10 10 7 8 4 12 17 19 23 25 26 26 30 31 31 27 27 23 24 24 22 20
1 15 16 9 7 5 4 4 2 2 4 13 12 13 23 5 4 6 7 10 11 10 9 8 1 4 8 13 19 21 25 26 25 24 25 25 25 23 23 24 25 24 21 17
0 5 8 4 8 6 6 9 4 6 7 6 13 13 9 10 14 16 13 14 9 8 5 5 6 6 8 14 19 23 25 26 23 22 21 21 20 20 20 21 22 21 17 12
1 6 3 4 3 4 2 4 8 4 4 2 5 8 10 11 19 8 12 7 11 9 7 7 7 7 13 17 20 25 26 27 26 24 22 21 20 20 20 19 17 15 11 9
3 3 4 5 2 5 6 3 3 1 4 5 6 7 11 2 13 5 8 9 8 6 7 8 8 8 12 19 24 28 29 29 29 28 27 25 23 20 18 16 15 12 10 10
3 1 4 3 3 4 2 3 3 4 5 4 3 7 6 13 5 9 14 10 9 9 10 10 8 9 15 22 24 26 30 31 29 27 25 23 21 18 15 14 13 12 13 12
2 3 4 8 6 5 4 3 2 3 9 4 3 7 11 3 7 8 17 5 9 10 10 10 10 10 14 17 22 25 30 30 28 26 25 22 19 16 14 13 13 14 13 10
2 2 4 8 3 3 1 4 4 1 2 6 5 6 5 8 9 9 8 3 10 13 13 11 11 10 10 15 19 24 27 28 25 24 23 19 18 17 15 14 14 12 12 9
5 4 5 5 6 3 6 11 4 4 3 5 19 11 25 14 17 14 3 5 1 13 13 12 10 10 10 16 18 22 26 26 23 21 19 20 20 18 15 14 14 13 9 7
4 5 5 9 12 14 13 17 16 11 8 5 9 10 14 13 17 14 9 9 8 11 13 12 11 10 9 13 18 23 26 25 23 21 21 21 20 15 14 14 11 12 10 4
5 3 3 11 14 11 17 20 19 16 14 10 10 24 9 14 9 8 12 15 15 11 14 13 13 12 11 14 17 22 26 25 21 19 17 20 17 15 15 13 11 10 6 6
6 3 3 7 9 12 10 16 19 11 8 13 10 13 10 11 11 8 3 14 17 15 16 15 14 13 11 17 21 22 28 25 20 17 18 18 18 17 16 13 11 9 7 8
7 4 3 7 5 5 4 3 5 12 16 16 8 9 15 13 10 4 4 5 11 15 16 14 13 11 18 21 24 28 27 23 19 18 20 20 21 17 15 15 12 9 9 11
13 7 3 3 4 10 12 4 4 7 5 3 5 10 10 7 4 3 4 4 2 9 11 14 19 20 21 25 29 27 24 23 18 17 22 22 20 17 16 15 13 10 9 10
5 15 5 2 4 4 3 6 11 8 5 5 8 9 7 5 5 4 3 3 5 7 8 11 19 19 21 23 30 25 22 23 20 21 24 22 21 18 16 16 14 11 10 11
2 4 10 6 4 6 4 12 12 6 2 11 11 12 6 2 4 3 4 2 4 6 10 17 19 19 23 28 29 20 21 21 24 22 24 22 20 20 16 14 13 10 9 10
2 2 3 4 5 4 6 13 4 4 5 7 12 8 7 1 8 5 7 7 4 6 13 20 16 15 22 29 27 19 20 28 22 24 25 24 21 19 17 15 12 10 10 13
1 1 3 2 2 5 15 15 15 3 3 13 12 13 7 8 11 8 6 4 4 4 13 22 20 17 21 27 29 22 29 26 24 26 26 25 22 18 17 15 13 11 11 14
2 1 1 3 5 6 14 10 12 19 16 16 13 5 3 13 12 8 5 8 8 5 5 18 19 16 16 25 29 32 28 26 26 28 27 24 22 18 16 13 13 13 13 14
2 5 6 4 6 6 8 13 18 17 18 17 10 9 9 13 14 11 11 11 11 8 3 13 17 17 20 27 29 31 27 27 27 28 28 24 22 20 16 14 13 12 11 13
2 4 3 3 9 6 7 10 14 14 16 16 11 12 13 16 16 10 12 10 10 12 16 8 5 12 19 26 27 29 27 28 27 23 24 26 24 21 18 16 13 11 9 10

GFSCGP_925_spd_033.txt.gz
Wind_Speed
1 8 16 18 19 20 16 9 21 18 10 21 25 28 24 21 23 25 23 22 22 22 20 24 24 26 26 29 32 29 24 17 11 11 13 16 19 17 17 18 18 20 20 21
5 15 14 12 13 17 21 20 12 9 10 7 15 21 18 17 19 20 22 22 23 23 21 19 23 25 26 29 33 31 24 19 14 14 14 9 13 13 14 14 16 18 19 19
15 15 7 10 16 18 17 22 21 11 10 14 14 23 23 21 20 21 23 24 23 22 21 19 19 21 23 22 30 25 21 18 15 15 14 12 12 9 12 15 17 17 17 17
13 13 12 15 12 18 18 10 13 19 15 13 4 12 13 12 17 17 18 19 21 21 20 21 19 17 22 25 18 21 20 18 14 17 18 20 14 12 10 14 15 17 16 16
19 14 10 15 13 12 17 15 11 6 9 12 20 12 19 14 22 19 17 19 22 22 22 22 21 20 25 18 19 20 14 12 12 17 18 18 12 9 12 15 17 16 15 15
22 20 14 16 13 9 10 16 17 15 11 14 18 11 23 18 21 20 23 20 18 18 17 17 18 17 19 12 9 7 8 10 14 17 16 16 15 14 16 18 19 17 16 15
13 16 11 16 16 11 9 11 9 11 13 18 6 13 23 3 9 12 9 13 16 14 12 12 11 9 10 7 6 6 11 14 16 16 15 15 15 16 19 23 21 19 17 16
4 4 3 12 20 18 14 15 9 16 14 19 13 12 8 9 10 11 12 14 13 13 12 12 10 6 5 6 7 10 14 17 17 16 16 15 16 17 20 21 21 16 17 15
5 2 6 5 6 13 13 10 19 6 4 11 12 19 17 16 16 10 11 10 15 15 15 10 6 5 6 9 11 14 17 17 17 18 17 17 17 19 17 18 17 17 14 15
2 6 2 7 9 4 8 5 10 9 6 8 9 18 9 7 7 3 12 17 18 18 10 2 6 8 11 12 15 16 18 19 19 19 19 18 17 17 18 17 16 16 15 13
6 3 3 5 6 7 9 7 6 7 11 3 3 3 2 6 11 11 14 17 17 15 4 4 8 10 14 16 17 18 20 21 20 20 19 19 17 17 17 17 16 15 14 12
4 3 5 10 8 7 7 4 9 8 17 10 8 5 4 12 10 15 18 18 20 11 4 2 7 11 15 18 19 19 20 20 20 21 21 21 20 19 18 16 14 13 13 13
3 1 6 7 4 4 1 3 2 5 6 12 12 6 9 7 19 17 21 21 18 10 4 1 6 9 12 17 19 20 21 21 20 21 21 19 17 16 15 14 13 13 14 13
5 6 10 9 8 8 10 10 8 5 8 13 16 23 26 20 19 22 23 18 18 9 2 3 6 9 11 17 20 21 21 21 20 21 20 18 15 14 14 13 14 14 13 12
4 9 11 14 15 14 17 19 17 14 14 11 13 24 23 17 19 21 19 17 17 9 5 6 6 9 10 15 20 22 21 20 20 19 17 15 14 14 13 13 13 12 11 8
7 7 10 12 16 17 20 20 20 19 18 18 20 29 20 22 21 19 22 19 18 12 8 10 9 12 13 16 18 21 20 20 18 16 15 14 13 12 13 13 13 11 9 7
4 4 5 11 8 9 13 22 24 19 17 16 20 24 22 20 18 17 17 16 19 14 9 12 13 13 13 18 19 19 19 18 15 14 13 12 12 12 12 12 13 11 8 10
5 9 6 3 2 7 6 1 6 13 16 17 20 24 21 21 19 19 18 21 20 11 10 13 13 13 18 20 19 18 16 16 15 12 11 11 12 13 13 14 12 10 10 10
12 5 3 3 7 12 16 3 6 4 10 10 17 22 17 17 17 23 19 19 14 10 10 13 17 19 19 20 19 18 16 15 13 11 10 12 13 15 14 13 10 10 10 11
9 12 5 5 5 5 4 5 6 8 10 13 18 15 16 14 10 12 13 7 7 9 11 13 19 20 20 20 20 17 16 14 12 10 11 13 14 13 13 13 10 9 9 9
2 3 11 9 5 7 3 8 7 4 2 13 6 6 7 9 10 12 14 6 5 10 13 18 20 19 20 20 19 17 16 14 11 8 13 14 13 13 12 11 9 9 9 9
3 3 2 5 6 6 7 9 5 6 16 12 15 8 10 13 17 19 18 8 6 9 14 20 18 19 20 20 19 17 16 13 11 10 14 14 13 11 11 11 9 7 8 9
2 2 2 3 3 6 11 11 18 20 18 20 14 9 12 13 14 13 12 14 7 5 12 18 18 20 20 20 19 17 14 12 12 12 15 14 13 11 10 10 9 7 7 8
4 5 3 3 3 11 12 16 15 2 9 1 5 4 3 2 4 4 4 7 8 6 11 16 16 17 18 20 19 18 15 14 14 13 17 14 12 11 9 7 7 7 9 8
4 6 5 5 7 11 6 13 14 13 15 15 11 14 12 7 5 4 2 5 4 4 10 16 16 18 20 22 20 17 15 16 15 14 17 14 11 10 10 7 6 5 6 6
6 4 3 2 10 6 9 13 14 14 16 14 14 16 14 11 7 6 6 6 7 9 9 11 12 15 18 21 21 18 17 17 17 15 14 13 12 10 9 9 8 8 7 7

GFSCGP_925_spd_036.txt.gz
Wind_Speed
13 12 14 15 18 25 25 28 22 19 22 26 26 34 31 28 29 28 24 21 20 21 20 24 24 23 23 24 24 24 24 21 16 15 17 17 20 17 17 18 18 19 20 23
12 16 17 15 14 20 22 26 31 20 15 20 25 32 29 27 29 28 27 27 26 24 23 22 27 25 24 26 24 25 24 19 16 15 16 14 15 16 15 16 16 19 20 21
15 16 10 10 14 19 23 25 25 27 20 17 21 27 27 22 24 24 24 24 24 26 25 23 22 25 27 26 24 21 20 17 17 17 15 13 12 10 14 15 16 19 19 20
15 11 13 16 19 18 21 22 26 24 22 23 21 20 23 25 29 29 27 25 25 25 25 23 23 24 28 27 22 19 17 15 15 18 19 19 16 13 14 16 16 18 18 18
21 19 16 18 20 19 20 18 24 23 23 25 30 19 19 19 21 19 18 20 23 24 24 25 24 24 26 25 24 22 20 18 17 18 18 18 16 12 14 16 19 18 18 18
21 18 18 22 19 17 14 17 20 19 14 18 24 22 20 21 26 22 18 20 21 21 19 18 20 22 21 18 19 19 17 15 15 16 17 17 17 15 17 19 20 20 19 18
18 14 14 15 19 20 16 16 11 15 18 19 21 20 19 7 1 1 8 15 8 11 13 13 12 12 14 14 15 14 13 13 14 16 17 17 17 17 19 22 21 22 21 19
7 7 14 7 18 21 21 19 15 20 17 20 26 23 16 16 14 15 12 10 10 11 11 10 12 10 11 13 12 10 12 13 15 16 17 17 18 19 20 19 21 19 19 19
9 6 12 10 12 14 20 20 21 24 19 16 18 26 26 19 11 9 3 6 8 10 11 14 11 8 8 8 8 11 13 16 17 19 19 20 19 21 21 23 18 19 19 18
7 10 10 4 7 14 8 13 4 15 13 20 17 22 15 24 27 15 0 9 13 15 12 6 3 7 7 10 13 15 18 20 20 21 21 21 22 21 22 20 20 19 17 17
14 7 11 13 6 4 5 9 12 14 17 13 12 16 19 14 11 8 6 12 15 15 11 7 2 5 11 15 18 19 20 22 21 22 22 22 21 21 21 20 19 17 16 15
13 6 11 16 10 5 8 11 5 5 20 16 10 3 11 18 14 6 11 15 16 15 8 4 2 6 13 17 19 20 21 22 22 23 22 21 21 21 20 19 17 16 14 12
8 5 10 9 8 4 8 14 13 14 14 14 12 4 14 10 6 10 14 16 16 15 8 4 3 6 11 16 19 21 22 23 23 23 23 21 20 19 18 17 15 14 14 13
10 13 15 13 18 14 11 12 12 13 10 13 16 20 8 11 12 16 15 19 18 16 9 3 2 6 10 16 19 20 22 23 24 23 22 20 18 16 15 14 14 14 15 15
5 14 18 18 19 17 18 18 17 17 19 18 18 24 19 17 16 18 19 21 17 15 9 4 3 6 8 14 19 21 22 22 21 21 20 18 17 16 15 15 15 15 15 13
4 6 13 20 18 18 22 21 21 21 20 21 22 27 22 23 22 21 20 18 16 14 12 7 7 8 11 15 20 21 21 20 19 19 19 18 16 15 14 15 15 16 14 10
4 4 9 13 11 13 16 17 19 22 21 21 21 23 21 23 20 19 19 18 16 15 13 10 11 12 13 18 21 21 21 20 19 19 17 16 14 14 14 15 16 16 11 10
5 9 9 6 2 9 11 2 9 13 13 15 22 22 23 22 20 18 17 18 18 15 12 13 13 14 18 20 22 21 21 20 19 18 15 13 12 12 12 14 16 13 11 9
12 6 5 4 9 14 19 7 4 3 12 16 21 19 18 16 15 17 16 17 19 16 10 13 17 20 22 23 23 22 21 20 18 16 13 12 11 14 14 17 16 13 10 8
8 12 7 4 4 5 3 6 3 10 17 8 16 18 14 10 11 9 2 12 10 8 10 14 20 24 25 24 23 22 20 19 16 15 13 12 13 15 16 16 14 12 10 10
2 3 12 12 6 6 2 4 7 5 5 14 12 13 16 10 11 12 13 16 17 6 14 21 22 21 24 25 24 21 20 17 15 14 14 13 14 14 15 14 12 10 10 10
3 4 2 6 5 5 4 6 5 12 20 19 15 14 15 15 13 15 15 15 15 8 15 19 19 21 25 26 23 22 19 17 13 14 15 14 15 15 15 13 11 10 9 10
3 2 3 3 3 10 13 9 15 21 23 23 14 14 15 18 14 14 12 10 8 9 12 19 19 22 24 24 23 23 20 17 14 15 15 15 15 13 12 10 10 9 9 9
4 4 3 3 1 12 14 10 13 17 3 10 12 15 10 11 9 9 9 8 7 5 9 18 20 18 21 23 23 23 21 18 17 16 16 16 14 12 9 8 7 8 8 8
4 2 4 5 11 11 4 13 14 14 11 12 9 8 7 9 6 5 1 5 7 6 8 16 18 19 21 24 24 23 21 19 18 17 16 15 13 10 9 6 5 6 6 4
3 3 2 3 14 7 9 12 15 15 13 12 12 10 11 10 8 8 1 3 6 7 6 14 19 20 22 24 24 23 21 19 19 17 14 14 14 12 10 10 10 9 10 8

GFSCGP_925_spd_042.txt.gz
Wind_Speed
11 12 13 17 17 20 19 21 25 26 26 26 22 25 27 23 24 25 20 19 23 26 22 25 32 27 36 27 23 22 20 20 18 16 19 23 24 26 26 26 24 22 26 30
13 15 15 15 17 19 20 23 25 24 24 21 24 28 29 21 21 20 21 22 22 20 18 21 24 23 23 25 25 23 23 25 25 25 29 26 24 27 26 24 22 21 23 27
15 17 20 19 19 22 20 19 22 23 20 20 24 26 26 27 24 19 20 20 21 20 20 19 14 13 12 16 22 25 28 29 27 31 29 28 30 25 12 23 22 22 21 22
15 19 20 20 22 19 21 20 23 22 19 17 18 18 21 22 24 21 23 23 17 16 17 18 16 12 14 11 13 16 23 29 31 31 27 26 22 17 18 18 19 20 20 21
18 19 19 21 23 22 25 23 21 22 22 21 22 15 21 21 24 23 20 22 20 16 18 22 20 12 17 21 24 27 28 30 32 31 32 29 23 20 18 18 19 21 20 22
20 18 15 17 21 22 22 23 25 22 18 17 24 20 22 19 22 24 22 19 22 23 24 19 18 25 23 25 26 25 33 37 34 32 29 27 25 22 20 18 19 18 20 23
17 17 8 12 17 20 14 15 13 15 15 17 22 21 18 23 23 27 23 21 19 19 17 16 21 20 22 30 31 33 28 28 30 30 25 29 23 29 17 25 21 18 19 21
12 15 7 4 21 20 10 6 7 12 16 18 20 15 17 20 22 23 23 24 19 14 14 16 11 11 16 19 24 23 21 23 25 27 27 24 27 21 20 22 20 19 21 23
14 15 19 20 17 17 19 13 12 12 17 16 18 24 20 22 22 21 24 23 17 15 14 10 7 10 12 14 19 22 20 22 23 23 23 22 24 22 24 22 24 25 25 24
14 21 19 23 10 17 24 18 10 1 5 17 17 21 14 16 16 21 22 19 22 14 9 9 8 7 9 12 16 23 21 20 20 20 21 21 23 20 25 26 27 25 22 24
18 14 17 20 19 16 11 10 6 7 6 10 14 12 8 21 24 27 27 19 4 8 11 11 8 6 11 12 12 13 14 18 20 21 22 23 20 21 25 26 26 25 24 23
10 7 16 22 25 21 19 16 11 9 14 13 12 18 16 21 26 30 33 8 15 6 1 9 7 5 4 11 15 13 15 17 20 20 23 24 26 24 24 28 27 23 22 20
8 4 10 14 18 8 7 14 17 15 9 15 12 14 15 21 23 28 26 20 21 11 10 7 10 11 13 13 19 20 22 23 24 26 27 26 26 26 25 24 23 20 19 17
5 6 14 15 21 3 6 19 25 18 10 14 14 19 8 8 11 22 24 25 18 13 9 5 3 10 10 16 22 23 26 26 25 25 25 24 23 23 22 23 20 19 16 13
6 8 15 20 23 22 21 26 30 23 18 18 16 18 12 8 7 18 20 29 16 12 4 6 7 8 6 15 19 28 29 27 30 25 24 23 23 21 21 20 17 16 16 15
3 5 14 18 19 21 24 25 27 26 20 22 18 17 13 9 12 21 28 18 11 11 9 3 7 4 11 14 18 24 26 25 26 25 23 22 20 19 18 17 15 15 14 15
3 5 9 15 15 15 14 16 17 24 17 20 18 12 14 9 14 17 10 14 10 10 14 6 6 7 7 9 22 18 25 25 23 22 21 19 18 17 16 17 17 18 18 14
5 9 7 10 13 11 8 17 13 17 17 22 21 16 19 20 20 13 11 12 11 13 11 3 7 6 4 8 21 25 24 22 21 21 21 20 18 18 19 19 16 21 17 16
8 2 4 4 7 13 16 8 9 12 22 16 15 18 17 19 19 16 10 11 12 10 11 12 13 13 8 10 24 24 23 21 21 20 23 23 22 19 20 14 22 17 15 12
5 6 3 3 4 4 6 13 18 13 12 13 12 14 17 21 9 7 16 20 3 9 9 9 14 19 15 16 24 21 20 20 19 21 28 25 23 20 17 20 21 16 13 11
2 2 5 9 5 6 4 6 5 5 7 20 21 18 19 15 13 18 16 15 15 8 8 16 21 18 17 18 23 19 19 16 25 21 17 16 25 20 17 22 18 13 13 13
3 2 2 3 4 3 4 5 3 8 19 20 23 21 19 18 20 16 17 17 17 9 8 15 20 22 21 20 20 17 16 24 22 18 17 21 25 21 25 22 16 13 9 17
3 5 2 4 4 12 12 12 9 12 13 19 19 24 17 16 18 17 18 19 15 8 6 11 23 20 17 25 20 23 23 23 19 18 19 18 11 22 23 20 15 12 12 14
7 4 3 3 1 12 12 9 10 9 14 18 16 14 8 12 15 16 18 15 11 6 10 15 16 12 17 24 26 28 23 20 20 18 20 22 19 19 16 15 13 11 13 15
10 8 7 4 8 8 2 13 6 12 14 14 14 13 14 13 15 14 13 11 8 7 7 23 12 14 20 21 28 27 24 21 22 21 25 22 20 18 12 10 7 9 7 11
4 5 3 3 7 4 13 13 5 9 13 14 12 14 13 14 15 16 14 9 6 5 7 8 14 23 22 21 28 27 23 22 22 20 23 21 20 18 16 15 20 16 15 13

GFSCGP_925_spd_045.txt.gz
Wind_Speed
6 5 5 11 10 10 12 15 13 15 12 13 11 17 19 13 14 17 20 20 17 19 22 27 27 26 27 30 31 31 30 29 30 26 24 24 25 27 28 30 31 34 29 37
6 5 8 13 13 13 10 14 15 13 9 12 13 18 19 16 16 16 13 18 21 13 13 17 28 32 28 31 30 35 38 34 29 28 26 27 27 27 30 30 34 35 32 34
6 11 14 16 14 15 12 14 16 19 13 13 12 15 21 20 14 15 17 9 7 11 14 14 10 13 16 24 34 39 38 38 36 31 30 29 27 25 21 22 30 35 31 31
6 9 14 12 12 12 15 11 15 17 13 11 5 15 14 19 21 13 14 13 10 10 9 17 14 8 9 14 29 34 34 33 33 32 32 33 26 20 31 25 25 34 29 28
11 10 12 11 9 15 16 15 19 15 17 13 12 7 13 7 18 15 12 18 16 12 10 11 12 11 21 15 19 30 32 33 34 34 36 36 30 29 29 22 25 28 26 27
10 5 4 4 8 8 12 15 16 11 9 12 15 10 19 11 18 19 14 14 17 19 14 11 11 23 22 28 27 25 28 33 35 39 40 35 31 26 22 19 28 28 27 23
7 8 5 4 2 5 7 4 5 4 4 15 13 12 18 11 15 13 12 15 17 17 11 12 16 11 17 21 28 31 31 35 40 41 40 36 33 27 24 25 30 28 25 24
3 7 5 2 6 6 9 4 4 5 4 7 19 7 10 11 13 20 21 17 16 13 13 12 13 16 14 25 29 31 27 26 31 35 37 34 30 28 25 27 31 30 27 25
6 6 8 13 15 12 4 3 9 5 10 4 5 11 13 10 16 21 22 24 21 23 25 17 19 10 14 24 29 31 34 31 31 33 33 31 29 27 22 27 27 25 22 22
6 16 5 12 12 10 7 1 2 4 3 3 5 11 5 14 16 18 20 22 24 24 26 19 12 9 14 19 25 36 35 34 35 34 33 29 25 24 27 28 24 21 21 22
7 2 10 10 4 13 13 2 4 4 2 3 4 2 3 8 11 15 18 20 23 20 21 18 9 6 9 13 16 23 28 28 28 26 26 26 26 27 30 27 24 24 23 23
3 4 10 20 20 14 12 6 3 1 3 4 4 8 6 4 7 10 17 17 22 20 18 23 17 15 4 12 20 26 29 29 31 27 24 23 26 28 31 29 26 26 25 24
2 3 6 9 4 4 2 10 5 5 2 7 5 5 5 2 5 9 11 17 19 19 16 17 22 23 8 4 17 22 26 28 31 25 25 24 25 28 32 32 28 28 26 25
6 4 7 8 13 11 14 12 13 4 2 12 11 13 17 5 3 9 13 15 16 20 21 8 25 20 6 9 14 22 23 30 30 28 28 30 30 32 32 31 29 28 25 22
2 5 11 17 20 21 19 20 18 16 18 13 22 19 20 9 4 4 13 11 17 28 28 22 24 15 8 10 23 26 25 28 31 28 29 29 33 35 33 30 27 22 20 18
5 3 5 17 18 18 20 14 16 18 17 10 11 8 19 9 8 9 17 17 17 24 26 16 7 6 3 11 6 27 26 27 31 29 26 28 33 32 29 26 23 21 20 18
1 3 4 5 8 12 8 3 6 8 9 6 4 7 12 11 9 11 18 20 22 17 14 13 6 1 16 17 30 25 28 30 29 29 27 28 29 29 27 21 19 19 25 26
6 5 3 5 6 2 1 14 9 11 9 10 7 9 12 16 18 19 13 9 12 11 8 10 9 10 5 12 28 31 31 30 30 27 25 27 28 25 20 20 23 24 24 23
5 2 3 3 3 11 7 7 6 8 14 5 10 15 17 20 18 16 15 18 13 9 8 7 12 21 16 15 23 31 31 30 28 24 25 29 26 22 22 23 25 24 24 22
7 5 2 3 4 3 4 7 10 8 5 11 13 12 16 16 9 11 18 22 21 16 8 9 12 4 27 23 31 28 25 24 22 29 28 30 29 26 22 26 25 23 20 18
3 2 6 6 5 5 0 10 10 1 3 15 15 17 17 11 10 18 24 24 18 15 16 18 16 6 20 22 30 22 22 18 32 29 29 29 29 27 24 26 23 20 19 19
3 2 3 3 3 6 4 8 2 5 14 14 13 17 18 19 21 20 22 20 17 20 21 14 13 6 21 22 27 19 25 31 32 29 29 25 27 27 28 24 22 20 19 23
2 4 2 4 4 2 3 6 5 13 13 8 14 17 19 20 13 16 16 14 15 17 18 8 13 9 12 18 26 28 28 33 31 32 29 26 27 27 27 24 20 19 25 25
4 4 3 3 5 7 5 5 7 9 9 12 14 16 16 15 15 14 13 12 12 14 16 14 8 11 13 21 28 28 28 31 34 26 25 26 26 22 23 21 19 19 23 22
11 5 3 5 9 5 5 7 9 9 7 15 13 14 14 14 14 13 13 13 12 11 14 11 11 14 15 27 26 29 30 33 27 27 27 25 26 24 18 16 12 13 14 19
2 3 3 3 4 4 6 7 5 5 9 12 13 14 11 13 13 14 13 13 12 13 10 10 13 9 27 26 25 29 29 32 28 24 22 23 24 21 21 23 17 12 16 16

GFSCGP_925_spd_048.txt.gz
Wind_Speed
4 3 4 11 9 12 7 10 7 5 8 6 8 15 14 6 6 8 9 12 13 15 19 20 26 30 23 22 36 38 29 42 42 36 35 36 37 46 44 41 38 35 33 34
6 3 3 5 7 6 8 5 7 6 7 11 12 21 18 8 6 7 10 11 11 13 17 18 20 30 34 29 29 32 39 35 45 42 41 33 37 44 44 40 36 34 34 36
3 7 8 8 6 7 5 5 8 8 12 8 6 17 16 15 5 6 8 9 10 10 13 15 13 17 30 31 28 30 37 49 48 49 39 28 27 18 26 31 30 30 32 34
6 7 5 7 3 3 3 7 10 12 9 4 3 13 16 12 14 7 9 8 11 11 11 10 13 11 19 27 25 24 26 46 48 47 38 37 28 20 29 26 27 24 23 26
10 5 11 3 1 2 6 6 6 9 10 4 9 6 14 5 13 15 13 15 11 12 10 12 14 18 28 32 28 26 23 36 43 48 41 37 30 33 31 30 24 22 27 27
8 3 4 5 2 1 3 4 6 4 3 6 9 8 26 12 10 14 12 13 14 16 15 14 14 24 23 28 25 24 25 31 41 37 38 37 34 33 29 27 20 22 24 26
3 3 3 3 1 3 1 4 4 5 3 5 2 5 19 9 3 2 9 12 12 12 12 15 17 14 17 21 28 29 32 35 37 37 38 39 39 38 37 29 25 24 25 27
3 6 2 2 4 5 5 6 4 4 6 10 13 7 5 7 3 3 7 9 10 8 10 14 17 17 17 22 29 32 34 35 41 44 46 45 43 39 35 29 28 27 31 30
3 5 8 6 3 2 2 4 7 3 3 5 5 7 6 5 6 9 10 10 13 13 10 14 17 14 21 24 28 31 32 38 43 44 43 38 40 34 33 30 27 28 32 30
3 7 4 2 5 9 6 2 2 2 3 5 5 5 6 8 8 10 13 12 14 14 14 14 13 16 24 26 30 30 38 38 44 43 41 40 36 33 31 29 26 29 28 25
1 2 5 4 5 13 3 2 2 2 3 4 5 5 6 8 10 8 12 13 12 16 16 12 13 16 22 22 28 32 32 32 33 34 34 31 31 32 30 27 27 27 26 24
1 1 4 10 20 9 4 4 5 3 3 3 3 8 10 11 12 7 11 15 15 15 15 12 12 12 15 20 21 27 27 23 25 27 28 29 29 28 27 26 27 26 25 23
1 1 5 7 3 3 2 4 4 4 2 6 4 8 5 11 10 8 9 13 17 15 14 8 8 11 13 15 16 20 19 23 25 28 28 26 26 26 27 29 27 27 26 24
5 2 6 7 15 10 13 15 15 9 4 6 14 19 17 20 15 11 11 11 12 14 14 7 9 13 13 14 17 14 17 31 33 31 29 26 27 29 31 32 31 31 29 27
6 5 10 19 21 20 19 19 21 16 15 12 18 16 17 9 17 11 13 13 13 15 15 16 13 17 20 10 15 16 14 25 30 29 28 27 30 31 31 31 31 29 31 30
3 5 6 15 18 16 17 18 20 19 14 9 5 11 11 11 10 10 13 14 15 15 23 25 24 22 17 14 15 6 16 21 30 27 27 27 28 31 33 34 33 31 28 28
5 3 3 5 8 13 6 4 4 3 2 3 6 10 9 16 17 16 19 20 13 18 16 13 13 3 13 7 18 17 23 24 26 28 28 28 30 28 33 33 32 29 26 25
6 4 3 5 6 3 2 6 5 8 11 12 12 8 11 15 20 18 15 5 13 18 19 17 13 1 4 8 18 28 29 24 28 30 28 29 30 27 29 32 29 26 27 30
5 3 3 2 2 7 2 4 3 3 17 12 6 12 17 18 19 21 2 14 19 19 19 16 19 8 2 4 16 17 12 25 29 28 27 27 28 26 29 26 26 29 32 30
3 4 4 1 3 4 3 4 4 7 9 2 12 16 20 19 13 17 19 24 24 21 17 16 24 7 8 5 11 17 20 26 26 26 27 30 29 28 29 28 31 31 28 26
3 4 9 5 5 6 4 4 2 0 6 15 13 17 16 14 11 19 24 24 18 19 18 24 21 9 6 7 20 26 24 24 28 30 32 32 29 30 32 30 32 31 28 24
3 2 3 3 4 5 1 2 1 5 17 16 14 13 15 18 19 16 18 16 15 16 16 20 12 7 12 12 19 11 21 26 31 30 28 32 31 28 30 32 29 29 28 27
2 5 3 5 5 5 6 7 7 8 15 17 14 14 15 17 18 17 14 14 10 12 13 21 14 6 11 18 16 16 21 28 28 26 25 26 29 30 29 29 29 27 28 23
5 1 3 1 6 13 7 5 5 7 14 11 11 17 15 17 14 15 14 14 14 13 12 17 11 5 7 17 14 27 27 29 28 25 24 27 29 25 25 29 29 28 24 20
9 5 4 7 12 9 5 6 12 12 10 9 15 14 15 14 14 14 15 16 14 13 14 15 5 5 8 8 24 29 27 29 25 23 23 23 25 28 24 23 22 25 25 28
3 3 3 3 6 5 7 7 11 8 6 12 13 13 13 13 14 14 14 15 15 13 12 6 6 7 15 8 25 26 30 29 29 21 22 26 25 24 23 22 16 17 19 19